Weather Service Report


341 
ASUS45 KSLC 221310
RWRUT 

UTAH REGIONAL WEATHER ROUNDUP
NATIONAL WEATHER SERVICE SALT LAKE CITY UT
700 AM MDT MON JUL 22 2024

UTZ101>105-107>111-221400-

NORTHERN UTAH
  
CITY           SKY/WX    TMP DP  RH WIND       PRES   REMARKS
BRIGHAM CITY   CLEAR     80  32  17 SE16      30.12R                  
DUGWAY         MOCLDY    71  40  32 NE3       30.10                   
HILL AFB       CLEAR     71  38  31 E16       30.12R                  
LOGAN          CLEAR     66  33  29 VRB3      30.16R                  
OGDEN          CLEAR     80  40  23 CALM      30.11S                  
SALT LAKE CITY PTCLDY    78  42  27 S10       30.10R                  
TOOELE VALLEY  CLEAR     73  39  29 S14       30.11R HAZE             
WENDOVER       PTCLDY    75  40  28 S7        30.09R                  
HEBER CITY     CLEAR     51  47  84 CALM      30.26S                  
WEST JORDAN    CLEAR     73  37  27 S5        30.15R                  

$$

UTZ024>027-106-112>120-221400-

CENTRAL/NORTHEAST UTAH
  
CITY           SKY/WX    TMP DP  RH WIND       PRES   REMARKS
PROVO AIRPORT  CLEAR     74  49  41 SW7       30.14R                  
MOAB/CANYONLAN PTCLDY    75  39  27 SE8       30.13R                  
DELTA          CLEAR     68  39  34 E12       30.11S                  
PRICE          CLEAR     70  40  33 N7        30.25S                  
RICHFIELD        N/A     55  50  82 CALM      30.20R                  
ROOSEVELT      CLEAR     57  45  62 SW5       30.26R                  
DUCHESNE       SUNNY     59  39  47 NW7       30.31R                  
VERNAL         CLEAR     62  42  47 W7        30.26R                  

$$

UTZ121>131-221400-

SOUTHERN UTAH
  
CITY           SKY/WX    TMP DP  RH WIND       PRES   REMARKS
BRYCE CANYON   PTCLDY    49  45  86 W8        30.38R                  
CEDAR CITY     PTCLDY    70  46  42 VRB3      30.19R                  
MILFORD        CLEAR     63  47  55 CALM      30.13R                  
PANGUITCH        N/A     52  41  66 SE10      30.33S                  
ST GEORGE      PTCLDY    82  53  36 E9        29.98R                  
HANKSVILLE     CLEAR     72  36  26 CALM      30.16R                  
KANAB          SUNNY     66  52  59 CALM      30.20R                  
BLANDING       CLEAR     63  50  62 W6        30.29R                  

$$

REGIONAL REPORTS     COLORADO/ARIZONA
  
CITY           SKY/WX    TMP DP  RH WIND       PRES   REMARKS
CRAIG, CO      CLEAR    N/A N/A N/A MISG      30.34R                  
GRAND JUNCTION CLEAR     71  41  33 E12       30.19R                  
RIFLE, CO      CLEAR     58  40  51 CALM      30.28R                  
MONTROSE, CO   CLEAR     58  41  53 SE5       30.29R                  
CORTEZ, CO     CLEAR     56  51  84 CALM      30.28S                  
COLORADO CITY  PTCLDY    64  54  68 E9        30.19R                  
PAGE, AZ       CLEAR     75  52  44 SW6       30.11S                  
GRAND CANYON   CLEAR     50  43  77 CALM      30.29S                  
KINGMAN, AZ    PTCLDY    77  61  57 W5        30.03R                  
FLAGSTAFF, AZ  CLEAR     53  48  83 CALM        N/A                   

$$

REGIONAL REPORTS    NEVADA/IDAHO/WYOMING
  
CITY           SKY/WX    TMP DP  RH WIND       PRES   REMARKS
LAS VEGAS, NV  MOCLDY    94  59  31 S3        29.89R HX  93           
ELY, NV        MOCLDY    59  44  57 S8        30.25S                  
ELKO, NV       MOCLDY    66  44  45 E6        30.15R                  
POCATELLO, ID  CLEAR     51  46  83 NW3       30.15R                  
BURLEY, ID     PTCLDY    61  49  64 E6        30.09R                  
EVANSTON, WY   CLEAR     58  39  49 E6        30.38R                  
ROCK SPRINGS,  CLEAR     57  39  51 E3        30.38S                  
KEMMERER, WY   CLEAR     54  37  54 N12       30.41R                  

$$
  

Return to Home page


Western Regional Climate Center, wrcc@dri.edu